Stündliche Wetter Aalsmeer

Heute, 22 Juni, Dienstag

Zeit Temperatur Niederschläge Wind Luftdruck Luftfeuchtigkeit
00:00 +11°C° 0 mm 3 m/S 761 mmHg 89%
01:00 +11°C° 0 mm 3 m/S 762 mmHg 89%
02:00 +12°C° 0 mm 3 m/S 762 mmHg 88%
03:00 +12°C° 0 mm 4 m/S 762 mmHg 88%
04:00 +12°C° 0 mm 4 m/S 762 mmHg 84%
05:00 +13°C° 0 mm 4 m/S 762 mmHg 79%
06:00 +13°C° 0 mm 5 m/S 762 mmHg 75%
07:00 +14°C° 0 mm 5 m/S 762 mmHg 69%
08:00 +15°C° 0 mm 5 m/S 762 mmHg 63%
09:00 +16°C° 0 mm 5 m/S 763 mmHg 57%
10:00 +17°C° 0 mm 5 m/S 763 mmHg 56%
11:00 +17°C° 0 mm 6 m/S 763 mmHg 56%
12:00 +17°C° 0 mm 6 m/S 763 mmHg 56%
13:00 +17°C° 0 mm 6 m/S 763 mmHg 55%
14:00 +17°C° 0 mm 6 m/S 764 mmHg 55%
15:00 +17°C° 0 mm 6 m/S 764 mmHg 55%
16:00 +16°C° 0 mm 6 m/S 764 mmHg 58%
17:00 +16°C° 0 mm 5 m/S 764 mmHg 62%
18:00 +15°C° 0 mm 5 m/S 764 mmHg 65%
19:00 +14°C° 0.1 mm 5 m/S 764 mmHg 69%
20:00 +13°C° 0.1 mm 4 m/S 765 mmHg 74%
21:00 +12°C° 0.1 mm 4 m/S 765 mmHg 78%
22:00 +12°C° 0 mm 4 m/S 765 mmHg 78%
23:00 +12°C° 0 mm 4 m/S 765 mmHg 78%

Morgen, 23 Juni, Mittwoch

Zeit Temperatur Niederschläge Wind Luftdruck Luftfeuchtigkeit
00:00 +12°C° 0 mm 3 m/S 765 mmHg 77%
01:00 +12°C° 0 mm 3 m/S 765 mmHg 77%
02:00 +12°C° 0 mm 3 m/S 765 mmHg 77%
03:00 +12°C° 0 mm 3 m/S 765 mmHg 78%
04:00 +12°C° 0 mm 3 m/S 766 mmHg 77%
05:00 +13°C° 0 mm 3 m/S 766 mmHg 77%
06:00 +13°C° 0 mm 3 m/S 766 mmHg 77%
07:00 +14°C° 0 mm 3 m/S 766 mmHg 73%
08:00 +16°C° 0 mm 3 m/S 766 mmHg 69%
09:00 +16°C° 0 mm 3 m/S 766 mmHg 65%
10:00 +17°C° 0 mm 4 m/S 766 mmHg 60%
11:00 +19°C° 0 mm 4 m/S 766 mmHg 55%
12:00 +20°C° 0 mm 4 m/S 766 mmHg 50%
13:00 +20°C° 0 mm 4 m/S 766 mmHg 50%
14:00 +20°C° 0 mm 4 m/S 766 mmHg 49%
15:00 +20°C° 0 mm 5 m/S 766 mmHg 49%
16:00 +19°C° 0 mm 5 m/S 766 mmHg 54%
17:00 +17°C° 0 mm 5 m/S 766 mmHg 59%
18:00 +17°C° 0 mm 5 m/S 766 mmHg 64%
19:00 +15°C° 0 mm 4 m/S 766 mmHg 70%
20:00 +14°C° 0 mm 4 m/S 766 mmHg 75%
21:00 +13°C° 0 mm 4 m/S 766 mmHg 81%
22:00 +12°C° 0 mm 3 m/S 766 mmHg 83%
23:00 +12°C° 0 mm 3 m/S 766 mmHg 86%

übermorgen, 24 Juni, Donnerstag

Zeit Temperatur Niederschläge Wind Luftdruck Luftfeuchtigkeit
00:00 +11°C° 0 mm 3 m/S 766 mmHg 88%
01:00 +11°C° 0 mm 3 m/S 766 mmHg 89%
02:00 +12°C° 0 mm 2 m/S 766 mmHg 89%
03:00 +10°C° 0 mm 2 m/S 766 mmHg 90%
04:00 +11°C° 0 mm 3 m/S 766 mmHg 85%
05:00 +13°C° 0 mm 3 m/S 766 mmHg 80%
06:00 +14°C° 0 mm 3 m/S 766 mmHg 75%
07:00 +16°C° 0 mm 3 m/S 766 mmHg 69%
08:00 +17°C° 0 mm 3 m/S 766 mmHg 63%
09:00 +19°C° 0 mm 3 m/S 766 mmHg 56%
10:00 +20°C° 0 mm 3 m/S 765 mmHg 53%
11:00 +21°C° 0 mm 3 m/S 765 mmHg 50%
12:00 +22°C° 0 mm 4 m/S 765 mmHg 47%
13:00 +22°C° 0 mm 4 m/S 765 mmHg 48%
14:00 +22°C° 0 mm 4 m/S 765 mmHg 49%
15:00 +21°C° 0 mm 4 m/S 765 mmHg 50%
16:00 +20°C° 0 mm 4 m/S 765 mmHg 55%
17:00 +19°C° 0 mm 4 m/S 765 mmHg 59%
18:00 +18°C° 0 mm 4 m/S 765 mmHg 63%
19:00 +17°C° 0 mm 4 m/S 765 mmHg 66%
20:00 +16°C° 0 mm 3 m/S 765 mmHg 69%
21:00 +13°C° 0 mm 3 m/S 765 mmHg 72%
22:00 +13°C° 0 mm 3 m/S 765 mmHg 73%
23:00 +13°C° 0 mm 2 m/S 766 mmHg 74%

25 Juni, Freitag

Zeit Temperatur Niederschläge Wind Luftdruck Luftfeuchtigkeit
00:00 +13°C° 0 mm 2 m/S 766 mmHg 75%
01:00 +12°C° 0 mm 2 m/S 766 mmHg 75%
02:00 +12°C° 0 mm 2 m/S 765 mmHg 76%
03:00 +12°C° 0 mm 1 m/S 765 mmHg 77%
04:00 +13°C° 0 mm 1 m/S 766 mmHg 72%
05:00 +14°C° 0 mm 1 m/S 766 mmHg 68%
06:00 +15°C° 0 mm 1 m/S 766 mmHg 64%
07:00 +18°C° 0 mm 1 m/S 766 mmHg 56%
08:00 +19°C° 0 mm 1 m/S 766 mmHg 48%
09:00 +20°C° 0 mm 2 m/S 766 mmHg 40%
10:00 +21°C° 0 mm 2 m/S 766 mmHg 38%
11:00 +21°C° 0 mm 2 m/S 766 mmHg 35%
12:00 +23°C° 0 mm 2 m/S 766 mmHg 33%
13:00 +22°C° 0 mm 3 m/S 766 mmHg 34%
14:00 +22°C° 0 mm 3 m/S 766 mmHg 34%
15:00 +22°C° 0 mm 3 m/S 766 mmHg 35%
16:00 +21°C° 0 mm 3 m/S 766 mmHg 40%
17:00 +20°C° 0 mm 3 m/S 766 mmHg 45%
18:00 +19°C° 0 mm 2 m/S 766 mmHg 50%
19:00 +17°C° 0 mm 2 m/S 766 mmHg 54%
20:00 +16°C° 0 mm 1 m/S 766 mmHg 58%
21:00 +14°C° 0 mm 1 m/S 766 mmHg 62%
22:00 +14°C° 0 mm 1 m/S 766 mmHg 63%
23:00 +13°C° 0 mm 1 m/S 766 mmHg 64%

26 Juni, Samstag

Zeit Temperatur Niederschläge Wind Luftdruck Luftfeuchtigkeit
00:00 +12°C° 0 mm 0 m/S 767 mmHg 65%
01:00 +11°C° 0 mm 0 m/S 766 mmHg 65%
02:00 +11°C° 0 mm 0 m/S 766 mmHg 66%
03:00 +11°C° 0 mm 0 m/S 766 mmHg 66%
04:00 +13°C° 0 mm 1 m/S 766 mmHg 63%
05:00 +14°C° 0 mm 1 m/S 766 mmHg 60%
06:00 +16°C° 0 mm 1 m/S 766 mmHg 57%
07:00 +19°C° 0 mm 1 m/S 766 mmHg 53%
08:00 +20°C° 0 mm 1 m/S 766 mmHg 49%
09:00 +20°C° 0 mm 0 m/S 766 mmHg 45%
10:00 +23°C° 0 mm 1 m/S 766 mmHg 43%
11:00 +24°C° 0 mm 1 m/S 766 mmHg 41%
12:00 +25°C° 0 mm 1 m/S 765 mmHg 38%
13:00 +25°C° 0 mm 2 m/S 765 mmHg 38%
14:00 +25°C° 0 mm 2 m/S 765 mmHg 39%
15:00 +25°C° 0 mm 2 m/S 765 mmHg 39%
16:00 +24°C° 0 mm 2 m/S 765 mmHg 44%
17:00 +23°C° 0 mm 2 m/S 764 mmHg 49%
18:00 +21°C° 0 mm 2 m/S 764 mmHg 55%
19:00 +20°C° 0 mm 2 m/S 764 mmHg 60%
20:00 +18°C° 0 mm 2 m/S 764 mmHg 65%
21:00 +17°C° 0 mm 2 m/S 764 mmHg 69%
22:00 +16°C° 0 mm 2 m/S 764 mmHg 71%
23:00 +16°C° 0 mm 2 m/S 764 mmHg 73%

27 Juni, Sonntag

Zeit Temperatur Niederschläge Wind Luftdruck Luftfeuchtigkeit
00:00 +16°C° 0 mm 2 m/S 764 mmHg 75%
01:00 +16°C° 0 mm 2 m/S 764 mmHg 74%
02:00 +15°C° 0 mm 2 m/S 763 mmHg 73%
03:00 +15°C° 0 mm 2 m/S 763 mmHg 72%
04:00 +16°C° 0 mm 2 m/S 763 mmHg 70%
05:00 +17°C° 0 mm 2 m/S 763 mmHg 68%
06:00 +18°C° 0 mm 2 m/S 763 mmHg 66%
07:00 +19°C° 0 mm 2 m/S 763 mmHg 63%
08:00 +21°C° 0 mm 2 m/S 763 mmHg 59%
09:00 +23°C° 0 mm 2 m/S 763 mmHg 55%
10:00 +24°C° 0 mm 2 m/S 762 mmHg 53%
11:00 +26°C° 0 mm 2 m/S 762 mmHg 51%
12:00 +27°C° 0 mm 2 m/S 762 mmHg 48%
13:00 +27°C° 0 mm 2 m/S 762 mmHg 50%
14:00 +27°C° 0 mm 2 m/S 762 mmHg 52%
15:00 +27°C° 0 mm 2 m/S 761 mmHg 54%
16:00 +26°C° 0 mm 2 m/S 761 mmHg 58%
17:00 +25°C° 0 mm 2 m/S 761 mmHg 62%
18:00 +25°C° 0 mm 1 m/S 761 mmHg 66%
19:00 +24°C° 0.5 mm 2 m/S 761 mmHg 73%
20:00 +22°C° 0.5 mm 3 m/S 761 mmHg 79%
21:00 +20°C° 0.5 mm 3 m/S 761 mmHg 85%
22:00 +19°C° 0.3 mm 4 m/S 761 mmHg 87%
23:00 +18°C° 0.3 mm 4 m/S 761 mmHg 89%
Mehr zeigen

Wir brauchen deine Erlaubnis

Meteoprog und unser Service Anbieter werden persönliche Daten aufbewahren, so wie Cookies, Geräte Bezeichnung oder ähnliche Technologien von deinem Gerät und Prozess, so wie Persönliche Daten Inhalte und Werbungen, genauso wie social Media und den Verkehr zu analysieren.

  • Aufbewahrung und/oder Zugang zu deiner Geräte Informationen.

    Cookies, Geräte Bezeichnung oder andere Informationen, können aufbewahrt oder Zugang zu deinem Gerät erhalten, für den Grund, der oben angegeben wird.

  • Personalisierte Werbung und Inhalte, Messungen, Einblick in das Publikum und Produkt Entwicklung.

    Werbungen und Inhalte können personalisiert werden, basierend auf ein Profil. Mehr Daten können besser personalisierte Werbungen und Inhalte hinzufügen. Werbung und Inhalte können gezeigt und gemessen werden. Einblicke über das Publikum, welche die Werbung gesehen haben und den Inhalt, können abgeleitet werden. So wie Daten können genutzt werden, um es zu verbessern oder die Benutzer Erfahrung zu verbessern das System und die Software.

Wenn du “Ich stimme zu” klickst, erlaubst du uns, die Cookies zu benutzen die Geräte Bezeichnung, den Web oder ähnliche Technologien zu benutzen. Deine Settings, können in deinem Gerät bei deinem Browser geändert werden.

Für den bestimmten Zweck, berechtigten Interessen beruhen darauf, mehr als auf den Inhalt. Du kannst mehr darüber in unseren Privaten und Cookie Politik lesen.